| time (UTC) | temp F | wind direction | speed MPH | gust MPH | rain 1hr in | rain 24hr in | rain mn in | humidity % | barometer mb |
| 20260508101548 | 36 | 239 | 2.0 | 4.0 | 0.00 | 0.00 | 0.00 | 91 | 1017.5 |
| 20260508100045 | 37 | 223 | 4.0 | 8.0 | 0.00 | 0.00 | 0.00 | 90 | 1017.3 |
| 20260508094540 | 37 | 229 | 4.0 | 6.0 | 0.00 | 0.00 | 0.00 | 91 | 1017.2 |
| 20260508093040 | 37 | 218 | 2.0 | 6.0 | 0.00 | 0.00 | 0.00 | 90 | 1017.1 |
| 20260508091605 | 37 | 231 | 2.0 | 6.0 | 0.00 | 0.00 | 0.00 | 90 | 1017.1 |
| 20260508090058 | 37 | 241 | 3.0 | 5.0 | 0.00 | 0.00 | 0.00 | 90 | 1017.0 |
| 20260508084542 | 38 | 241 | 3.0 | 5.0 | 0.00 | 0.00 | 0.00 | 90 | 1016.9 |
| 20260508083044 | 38 | 242 | 3.0 | 6.0 | 0.00 | 0.00 | 0.00 | 90 | 1016.8 |
| 20260508081547 | 38 | 226 | 3.0 | 5.0 | 0.00 | 0.00 | 0.00 | 90 | 1016.7 |
| 20260508080041 | 38 | 233 | 3.0 | 6.0 | 0.00 | 0.00 | 0.00 | 90 | 1016.7 |
| 20260508074541 | 38 | 225 | 3.0 | 5.0 | 0.00 | 0.00 | 0.00 | 89 | 1016.7 |
| 20260508073040 | 39 | 229 | 2.0 | 5.0 | 0.00 | 0.00 | 0.00 | 90 | 1016.5 |
| 20260508071542 | 39 | 231 | 4.0 | 6.0 | 0.00 | 0.00 | 0.00 | 89 | 1016.5 |
| 20260508070042 | 39 | 230 | 3.0 | 6.0 | 0.00 | 0.00 | 0.00 | 89 | 1016.4 |
| 20260508064549 | 40 | 233 | 2.0 | 5.0 | 0.00 | 0.00 | 0.00 | 89 | 1016.6 |
| 20260508063115 | 40 | 235 | 2.0 | 5.0 | 0.00 | 0.00 | 0.00 | 89 | 1016.5 |
| 20260508061544 | 40 | 247 | 3.0 | 5.0 | 0.00 | 0.00 | 0.00 | 89 | 1016.6 |
| 20260508060045 | 40 | 237 | 3.0 | 7.0 | 0.00 | 0.00 | 0.00 | 89 | 1016.7 |
| 20260508054543 | 41 | 243 | 3.0 | 5.0 | 0.00 | 0.00 | 0.00 | 88 | 1016.6 |
| 20260508053052 | 41 | 223 | 2.0 | 6.0 | 0.00 | 0.00 | 0.00 | 88 | 1016.6 |
| 20260508051606 | 41 | 237 | 2.0 | 6.0 | 0.00 | 0.00 | 0.00 | 88 | 1016.5 |
| 20260508050050 | 42 | 233 | 2.0 | 5.0 | 0.00 | 0.00 | 0.00 | 88 | 1016.5 |
| 20260508044546 | 42 | 235 | 2.0 | 4.0 | 0.00 | 0.00 | 0.00 | 87 | 1016.6 |
| 20260508043040 | 42 | 211 | 2.0 | 4.0 | 0.00 | 0.00 | 0.00 | 87 | 1016.6 |
| 20260508041546 | 43 | 225 | 2.0 | 5.0 | 0.00 | 0.00 | 0.00 | 87 | 1016.5 |
| 20260508040045 | 43 | 206 | 2.0 | 4.0 | 0.00 | 0.00 | 0.00 | 86 | 1016.5 |
| 20260508034546 | 44 | 233 | 2.0 | 5.0 | 0.00 | 0.00 | 0.00 | 86 | 1016.5 |
| 20260508033048 | 44 | 212 | 2.0 | 4.0 | 0.00 | 0.00 | 0.00 | 85 | 1016.4 |
| 20260508031541 | 45 | 218 | 2.0 | 6.0 | 0.00 | 0.00 | 0.00 | 84 | 1016.2 |
| 20260508030045 | 45 | 231 | 2.0 | 4.0 | 0.00 | 0.00 | 0.00 | 84 | 1016.1 |
| 20260508024539 | 46 | 243 | 2.0 | 4.0 | 0.00 | 0.00 | 0.00 | 83 | 1015.8 |
| 20260508023038 | 47 | 240 | 2.0 | 6.0 | 0.00 | 0.00 | 0.00 | 82 | 1015.7 |
| 20260508021550 | 47 | 218 | 2.0 | 6.0 | 0.00 | 0.00 | 0.00 | 80 | 1015.3 |
| 20260508020040 | 48 | 233 | 3.0 | 5.0 | 0.00 | 0.00 | 0.00 | 79 | 1015.1 |
| 20260508014539 | 49 | 212 | 2.0 | 5.0 | 0.00 | 0.01 | 0.00 | 77 | 1014.9 |
| 20260508013046 | 50 | 233 | 3.0 | 5.0 | 0.00 | 0.01 | 0.00 | 76 | 1014.6 |
| 20260508011549 | 50 | 237 | 3.0 | 6.0 | 0.00 | 0.01 | 0.00 | 74 | 1014.4 |
| 20260508010058 | 52 | 235 | 3.0 | 6.0 | 0.00 | 0.01 | 0.00 | 73 | 1014.2 |
| 20260508004545 | 52 | 212 | 2.0 | 8.0 | 0.00 | 0.03 | 0.00 | 71 | 1014.0 |
| 20260508003046 | 53 | 210 | 3.0 | 7.0 | 0.00 | 0.03 | 0.00 | 70 | 1013.8 |
| 20260508001546 | 54 | 219 | 2.0 | 8.0 | 0.00 | 0.03 | 0.00 | 69 | 1013.6 |
| 20260508000047 | 55 | 207 | 3.0 | 8.0 | 0.00 | 0.03 | 0.00 | 67 | 1013.2 |
| 20260507234541 | 58 | 200 | 3.0 | 6.0 | 0.00 | 0.05 | 0.00 | 58 | 1013.0 |
| 20260507233042 | 59 | 221 | 2.0 | 5.0 | 0.00 | 0.05 | 0.00 | 56 | 1012.9 |
| 20260507231543 | 60 | 233 | 3.0 | 6.0 | 0.00 | 0.05 | 0.00 | 50 | 1012.9 |
| 20260507230105 | 61 | 202 | 2.0 | 6.0 | 0.00 | 0.05 | 0.00 | 49 | 1012.8 |
| 20260507224545 | 62 | 156 | 3.0 | 8.0 | 0.00 | 0.06 | 0.00 | 42 | 1012.9 |
| 20260507223131 | 62 | 0 | 2.0 | 6.0 | 0.00 | 0.06 | 0.00 | 42 | 1012.5 |
| 20260507221539 | 62 | 204 | 4.0 | 8.0 | 0.00 | 0.06 | 0.00 | 44 | 1012.5 |
| 20260507220046 | 62 | 0 | 1.0 | 6.0 | 0.00 | 0.06 | 0.00 | 44 | 1012.4 |
| 20260507214554 | 62 | 0 | 2.0 | 7.0 | 0.00 | 0.07 | 0.00 | 44 | 1012.1 |
| 20260507213046 | 63 | 322 | 1.0 | 11.0 | 0.00 | 0.07 | 0.00 | 44 | 1012.1 |
| 20260507211547 | 64 | 249 | 3.0 | 9.0 | 0.00 | 0.07 | 0.00 | 43 | 1011.8 |
| 20260507210046 | 64 | 285 | 1.0 | 9.0 | 0.00 | 0.07 | 0.00 | 42 | 1011.8 |
| 20260507204542 | 64 | 222 | 4.0 | 9.0 | 0.00 | 0.08 | 0.00 | 42 | 1011.6 |
| 20260507203046 | 64 | 234 | 2.0 | 10.0 | 0.00 | 0.08 | 0.00 | 41 | 1011.8 |
| 20260507201557 | 64 | 290 | 5.0 | 12.0 | 0.00 | 0.08 | 0.00 | 41 | 1011.8 |
| 20260507200054 | 66 | 260 | 2.0 | 12.0 | 0.00 | 0.08 | 0.00 | 44 | 1011.9 |
| 20260507194541 | 65 | 344 | 2.0 | 9.0 | 0.00 | 0.08 | 0.00 | 45 | 1012.1 |
| 20260507193051 | 65 | 292 | 1.0 | 10.0 | 0.00 | 0.08 | 0.00 | 46 | 1012.3 |
| 20260507191547 | 64 | 252 | 4.0 | 12.0 | 0.00 | 0.08 | 0.00 | 46 | 1012.3 |
| 20260507190051 | 63 | 220 | 2.0 | 7.0 | 0.00 | 0.08 | 0.00 | 49 | 1012.6 |
| 20260507184543 | 62 | 299 | 4.0 | 9.0 | 0.00 | 0.10 | 0.00 | 51 | 1013.0 |
| 20260507183042 | 62 | 0 | 1.0 | 7.0 | 0.00 | 0.10 | 0.00 | 52 | 1013.0 |
| 20260507181547 | 61 | 22 | 2.0 | 9.0 | 0.00 | 0.10 | 0.00 | 52 | 1012.9 |
| 20260507180039 | 62 | 285 | 3.0 | 14.0 | 0.00 | 0.10 | 0.00 | 52 | 1013.2 |
| 20260507174554 | 62 | 216 | 4.0 | 11.0 | 0.00 | 0.13 | 0.00 | 51 | 1013.3 |
| 20260507173044 | 62 | 310 | 3.0 | 10.0 | 0.00 | 0.13 | 0.00 | 48 | 1013.5 |
| 20260507171557 | 60 | 0 | 1.0 | 6.0 | 0.00 | 0.13 | 0.00 | 52 | 1013.7 |
| 20260507170050 | 61 | 316 | 1.0 | 9.0 | 0.00 | 0.13 | 0.00 | 54 | 1013.8 |
| 20260507164547 | 61 | 89 | 3.0 | 7.0 | 0.00 | 0.17 | 0.00 | 49 | 1014.0 |
| 20260507163045 | 59 | 180 | 2.0 | 7.0 | 0.00 | 0.17 | 0.00 | 50 | 1014.1 |
| 20260507161559 | 59 | 247 | 1.0 | 6.0 | 0.00 | 0.17 | 0.00 | 53 | 1014.2 |
| 20260507160044 | 58 | 347 | 1.0 | 9.0 | 0.00 | 0.17 | 0.00 | 51 | 1014.4 |
| 20260507154544 | 58 | 243 | 2.0 | 7.0 | 0.00 | 0.20 | 0.00 | 52 | 1014.4 |
| 20260507153042 | 58 | 27 | 2.0 | 11.0 | 0.00 | 0.20 | 0.00 | 53 | 1014.4 |
| 20260507151551 | 57 | 135 | 3.0 | 9.0 | 0.00 | 0.20 | 0.00 | 55 | 1014.3 |
| 20260507150050 | 57 | 72 | 2.0 | 9.0 | 0.00 | 0.20 | 0.00 | 54 | 1014.4 |
| 20260507144546 | 57 | 153 | 1.0 | 7.0 | 0.00 | 0.20 | 0.00 | 55 | 1014.6 |
| 20260507143052 | 57 | 322 | 1.0 | 6.0 | 0.00 | 0.20 | 0.00 | 63 | 1014.5 |
| 20260507141547 | 56 | 293 | 1.0 | 5.0 | 0.00 | 0.20 | 0.00 | 67 | 1014.6 |
| 20260507140046 | 56 | 359 | 1.0 | 4.0 | 0.00 | 0.20 | 0.00 | 70 | 1014.7 |
| 20260507134540 | 54 | 0 | 1.0 | 3.0 | 0.00 | 0.23 | 0.00 | 74 | 1014.9 |
| 20260507133047 | 54 | 0 | 0.0 | 2.0 | 0.00 | 0.23 | 0.00 | 76 | 1015.1 |
| 20260507131546 | 54 | 74 | 0.0 | 2.0 | 0.00 | 0.23 | 0.00 | 80 | 1015.1 |
| 20260507130059 | 53 | 0 | 0.0 | 1.0 | 0.00 | 0.23 | 0.00 | 86 | 1015.2 |
| 20260507124559 | 52 | 0 | 0.0 | 3.0 | 0.00 | 0.30 | 0.00 | 91 | 1015.1 |
| 20260507123046 | 51 | 258 | 0.0 | 1.0 | 0.00 | 0.30 | 0.00 | 93 | 1014.9 |
| 20260507121545 | 51 | 0 | 0.0 | 3.0 | 0.00 | 0.30 | 0.00 | 93 | 1015.1 |
| 20260507120046 | 50 | 218 | 1.0 | 3.0 | 0.00 | 0.30 | 0.00 | 93 | 1015.1 |
| 20260507114545 | 50 | 221 | 0.0 | 3.0 | 0.00 | 0.39 | 0.00 | 93 | 1015.1 |
| 20260507113040 | 50 | 245 | 0.0 | 2.0 | 0.00 | 0.39 | 0.00 | 93 | 1015.1 |
| 20260507111540 | 50 | 218 | 1.0 | 3.0 | 0.00 | 0.39 | 0.00 | 93 | 1014.7 |
| 20260507110047 | 50 | 0 | 0.0 | 4.0 | 0.00 | 0.39 | 0.00 | 93 | 1014.7 |
| 20260507104553 | 50 | 0 | 1.0 | 3.0 | 0.00 | 0.48 | 0.00 | 93 | 1014.7 |
| 20260507103043 | 50 | 172 | 1.0 | 3.0 | 0.00 | 0.48 | 0.00 | 93 | 1014.4 |